Change the Weather History Date:

Monday, November 11, 2013

  Actual Average Record
Temperature  
Mean Temperature 47 °F -  
Max Temperature 55 °F 59 °F 73 °F (2006)
Min Temperature 39 °F 39 °F 21 °F (1973)
Degree Days  
Heating Degree Days 18    
Moisture  
Dew Point 34 °F    
Average Humidity 58    
Maximum Humidity 75    
Minimum Humidity 44    
Precipitation  
Precipitation 0.00 in - - ()
Sea Level Pressure  
Sea Level Pressure 30.22 in    
Wind  
Wind Speed 6 mph (West)    
Max Wind Speed 15 mph    
Max Gust Speed 20 mph    
Visibility 10 miles    
Events      
Averages and records for this station are not official NWS values.
T = Trace of Precipitation, MM = Missing Value Source: NWS Daily Summary

Daily Weather History Graph

Daily Weather History Graph

Search for Another Location

Airport or City:

Trip Planner

Search our weather history database for the weather conditions in past years. The results will help you decide how hot, cold, wet, or windy it might be!

Date:

Astronomy

Nov. 11, 2013 Rise Set
Actual Time 6:42 AM EST 4:53 PM EST
Civil Twilight 6:14 AM EST 5:21 PM EST
Nautical Twilight 5:42 AM EST 5:53 PM EST
Astronomical Twilight 5:10 AM EST 6:25 PM EST
Moon 1:29 PM EST (11/11) 12:28 AM EST (11/11)
Length of Visible Light 11h 07m
Length of Day
10h 11m
Waxing Gibbous, 66% of the Moon is Illuminated
Nov 11
Waxing Gibbous
Nov 17
Full
Nov 25
Last Quarter
Dec 2
New
Dec 9
First Quarter

Hourly Weather History & Observations

Time (EST) Temp. Windchill Dew Point Humidity Pressure Visibility Wind Dir Wind Speed Gust Speed Precip Events Conditions
12:07 AM 48.4 °F - 30.7 °F 51% 30.25 in 10.0 mi NW 8.1 mph - N/A   Clear
12:27 AM 48.0 °F - 31.1 °F 52% 30.25 in 10.0 mi NW 4.6 mph - N/A   Clear
12:47 AM 47.5 °F - 31.1 °F 53% 30.25 in 10.0 mi West 4.6 mph - N/A   Clear
1:07 AM 47.3 °F - 31.3 °F 54% 30.25 in 10.0 mi Calm Calm - N/A   Clear
1:27 AM 46.9 °F - 31.8 °F 56% 30.25 in 10.0 mi NW 9.2 mph - N/A   Clear
1:47 AM 47.7 °F - 31.5 °F 53% 30.26 in 10.0 mi NW 8.1 mph - N/A   Clear
2:07 AM 47.1 °F - 31.6 °F 55% 30.26 in 10.0 mi NW 10.4 mph 16.1 mph N/A   Clear
2:27 AM 46.9 °F - 31.8 °F 56% 30.26 in 10.0 mi NW 9.2 mph 17.3 mph N/A   Clear
2:48 AM 46.6 °F - 31.8 °F 56% 30.27 in 10.0 mi WNW 6.9 mph - N/A   Clear
3:08 AM 46.2 °F 42.2 °F 32.0 °F 58% 30.27 in 10.0 mi NW 8.1 mph - N/A   Clear
3:28 AM 45.7 °F 40.6 °F 32.0 °F 59% 30.27 in 10.0 mi NNW 10.4 mph - N/A   Clear
3:48 AM 44.8 °F 40.4 °F 32.0 °F 61% 30.27 in 10.0 mi NNW 8.1 mph - N/A   Clear
4:08 AM 43.7 °F 40.3 °F 32.0 °F 63% 30.28 in 10.0 mi NNW 5.8 mph - N/A   Clear
4:28 AM 44.2 °F - 32.2 °F 63% 30.28 in 10.0 mi Calm Calm - N/A   Clear
4:48 AM 42.1 °F 38.4 °F 32.0 °F 67% 30.28 in 10.0 mi NNW 5.8 mph - N/A   Clear
5:08 AM 41.4 °F - 32.4 °F 70% 30.28 in 10.0 mi Calm Calm - N/A   Clear
5:21 AM 41.2 °F - 32.5 °F 71% 30.28 in 10.0 mi Calm Calm - N/A   Clear
5:45 AM 41.0 °F - 32.0 °F 70% 30.29 in 10.0 mi Calm Calm - N/A   Clear
6:50 AM 39.2 °F - 32.0 °F 75% 30.31 in 10.0 mi Calm Calm - N/A   Clear
7:45 AM 44.6 °F - 35.6 °F 71% 30.34 in 10.0 mi Calm Calm - N/A   Clear
9:50 AM 50.0 °F - 33.8 °F 54% 30.33 in 10.0 mi Calm Calm - N/A   Partly Cloudy
10:45 AM 53.6 °F - 32.0 °F 44% 30.32 in 10.0 mi Calm Calm - N/A   Partly Cloudy
11:50 AM 53.6 °F - 32.0 °F 44% 30.29 in 10.0 mi Calm Calm - N/A   Partly Cloudy
12:45 PM 55.4 °F - 35.6 °F 47% 30.26 in 10.0 mi SW 3.5 mph - N/A   Partly Cloudy
1:45 PM 53.6 °F - 32.0 °F 44% 30.22 in 10.0 mi SW 5.8 mph - N/A   Partly Cloudy
3:53 PM 53.6 °F - 35.6 °F 51% 30.19 in 10.0 mi SSW 6.9 mph - N/A   Scattered Clouds
4:53 PM 51.8 °F - 35.6 °F 54% 30.17 in 10.0 mi SSW 10.4 mph - N/A   Mostly Cloudy
5:50 PM 50.0 °F - 37.4 °F 62% 30.18 in 10.0 mi SSW 6.9 mph - N/A   Scattered Clouds
6:53 PM 50.0 °F - 41.0 °F 71% 30.16 in 10.0 mi Calm Calm - N/A   Mostly Cloudy
7:53 PM 51.8 °F - 41.0 °F 67% 30.13 in 10.0 mi SSW 8.1 mph - N/A   Mostly Cloudy
8:53 PM 51.8 °F - 39.2 °F 62% 30.12 in 10.0 mi SSW 11.5 mph - N/A   Mostly Cloudy
9:30 PM 52.9 °F - 38.7 °F 58% 30.12 in 10.0 mi SW 11.5 mph - N/A   Clear
9:50 PM 53.2 °F - 38.5 °F 57% 30.12 in 10.0 mi SW 11.5 mph 16.1 mph N/A   Clear
10:10 PM 53.4 °F - 37.6 °F 55% 30.11 in 10.0 mi SW 12.7 mph 19.6 mph N/A   Clear
10:30 PM 53.2 °F - 36.7 °F 53% 30.10 in 10.0 mi SW 12.7 mph 17.3 mph N/A   Clear
10:50 PM 53.2 °F - 36.3 °F 53% 30.09 in 10.0 mi SW 12.7 mph 18.4 mph N/A   Clear
11:10 PM 53.1 °F - 36.5 °F 53% 30.08 in 10.0 mi SW 13.8 mph 18.4 mph N/A   Clear
11:30 PM 52.9 °F - 36.1 °F 53% 30.07 in 10.0 mi SW 15.0 mph 19.6 mph N/A   Clear
11:50 PM 52.9 °F - 36.0 °F 53% 30.07 in 10.0 mi SW 12.7 mph - N/A   Clear